• In Hungary
  • List of Countries
  • For 7 days
  • Water Temperature
  • Satellite Maps
  • Weather Map
  • News
  • Weather Widgets
  • user-avatar
    Login

    Hourly Weather Murguk

    Today, 21 July, Saturday

    Time Temperature Precipitation Wind Pressure Humidity
    00:00 +21°C° 0 mm 2 mps 681 mmHg 81%
    01:00 +20°C° 0 mm 2 mps 681 mmHg 80%
    02:00 +20°C° 0 mm 2 mps 681 mmHg 78%
    03:00 +20°C° 0 mm 2 mps 681 mmHg 77%
    04:00 +21°C° 0 mm 2 mps 682 mmHg 74%
    05:00 +21°C° 0 mm 2 mps 682 mmHg 72%
    06:00 +23°C° 0 mm 2 mps 682 mmHg 69%
    07:00 +24°C° 0 mm 3 mps 682 mmHg 66%
    08:00 +26°C° 0 mm 3 mps 683 mmHg 63%
    09:00 +27°C° 0 mm 3 mps 683 mmHg 60%
    10:00 +27°C° 0.1 mm 3 mps 683 mmHg 60%
    11:00 +28°C° 0.1 mm 4 mps 683 mmHg 60%
    12:00 +28°C° 0.1 mm 4 mps 683 mmHg 60%
    13:00 +28°C° 0.2 mm 3 mps 683 mmHg 60%
    14:00 +28°C° 0.2 mm 3 mps 683 mmHg 60%
    15:00 +28°C° 0.2 mm 3 mps 683 mmHg 60%
    16:00 +27°C° 0.1 mm 3 mps 683 mmHg 63%
    17:00 +26°C° 0.1 mm 2 mps 683 mmHg 66%
    18:00 +26°C° 0.1 mm 2 mps 682 mmHg 68%
    19:00 +24°C° 0 mm 2 mps 682 mmHg 73%
    20:00 +23°C° 0 mm 2 mps 683 mmHg 77%
    21:00 +21°C° 0 mm 1 mps 683 mmHg 82%
    22:00 +20°C° 0 mm 2 mps 683 mmHg 81%
    23:00 +20°C° 0 mm 2 mps 683 mmHg 80%

    Tomorrow, 22 July, Sunday

    Time Temperature Precipitation Wind Pressure Humidity
    00:00 +20°C° 0 mm 2 mps 683 mmHg 80%
    01:00 +20°C° 0 mm 2 mps 683 mmHg 79%
    02:00 +20°C° 0 mm 2 mps 683 mmHg 78%
    03:00 +20°C° 0 mm 2 mps 683 mmHg 77%
    04:00 +20°C° 0 mm 2 mps 683 mmHg 75%
    05:00 +21°C° 0 mm 2 mps 683 mmHg 73%
    06:00 +23°C° 0 mm 2 mps 683 mmHg 70%
    07:00 +24°C° 0 mm 2 mps 683 mmHg 65%
    08:00 +26°C° 0 mm 2 mps 684 mmHg 60%
    09:00 +27°C° 0 mm 3 mps 684 mmHg 55%
    10:00 +28°C° 0.1 mm 3 mps 684 mmHg 55%
    11:00 +28°C° 0.1 mm 3 mps 684 mmHg 54%
    12:00 +29°C° 0.1 mm 4 mps 684 mmHg 53%
    13:00 +29°C° 0.2 mm 4 mps 683 mmHg 54%
    14:00 +29°C° 0.2 mm 4 mps 683 mmHg 55%
    15:00 +28°C° 0.2 mm 4 mps 683 mmHg 56%
    16:00 +27°C° 0.6 mm 3 mps 682 mmHg 61%
    17:00 +27°C° 0.6 mm 3 mps 682 mmHg 65%
    18:00 +26°C° 0.6 mm 2 mps 682 mmHg 70%
    19:00 +24°C° 0.4 mm 2 mps 682 mmHg 74%
    20:00 +23°C° 0.4 mm 2 mps 682 mmHg 79%
    21:00 +22°C° 0.4 mm 1 mps 682 mmHg 83%
    22:00 +22°C° 0 mm 1 mps 682 mmHg 82%
    23:00 +21°C° 0 mm 1 mps 682 mmHg 81%

    Day after tomorrow, 23 July, Monday

    Time Temperature Precipitation Wind Pressure Humidity
    00:00 +21°C° 0 mm 1 mps 682 mmHg 79%
    01:00 +21°C° 0 mm 1 mps 682 mmHg 78%
    02:00 +22°C° 0 mm 1 mps 682 mmHg 76%
    03:00 +22°C° 0 mm 1 mps 682 mmHg 75%
    04:00 +22°C° 0.2 mm 1 mps 682 mmHg 75%
    05:00 +23°C° 0.2 mm 1 mps 682 mmHg 74%
    06:00 +23°C° 0.2 mm 1 mps 682 mmHg 74%
    07:00 +24°C° 0.1 mm 1 mps 682 mmHg 69%
    08:00 +26°C° 0.1 mm 2 mps 682 mmHg 64%
    09:00 +27°C° 0.1 mm 2 mps 682 mmHg 59%
    10:00 +28°C° 0.2 mm 3 mps 682 mmHg 58%
    11:00 +28°C° 0.2 mm 3 mps 682 mmHg 56%
    12:00 +29°C° 0.2 mm 4 mps 682 mmHg 55%
    13:00 +29°C° 0.1 mm 4 mps 682 mmHg 56%
    14:00 +29°C° 0.1 mm 4 mps 681 mmHg 57%
    15:00 +29°C° 0.1 mm 3 mps 681 mmHg 58%
    16:00 +28°C° 0.5 mm 3 mps 681 mmHg 62%
    17:00 +27°C° 0.5 mm 2 mps 681 mmHg 66%
    18:00 +26°C° 0.5 mm 2 mps 680 mmHg 70%
    19:00 +25°C° 0.4 mm 2 mps 681 mmHg 74%
    20:00 +23°C° 0.4 mm 2 mps 681 mmHg 79%
    21:00 +21°C° 0.4 mm 2 mps 681 mmHg 83%
    22:00 +21°C° 0.6 mm 2 mps 681 mmHg 81%
    23:00 +21°C° 0.6 mm 2 mps 681 mmHg 79%

    24 July, Tuesday

    Time Temperature Precipitation Wind Pressure Humidity
    00:00 +21°C° 0.6 mm 2 mps 681 mmHg 78%
    01:00 +21°C° 0.5 mm 3 mps 681 mmHg 79%
    02:00 +21°C° 0.5 mm 3 mps 681 mmHg 81%
    03:00 +20°C° 0.5 mm 3 mps 681 mmHg 82%
    04:00 +21°C° 0 mm 3 mps 681 mmHg 80%
    05:00 +22°C° 0 mm 3 mps 681 mmHg 78%
    06:00 +22°C° 0 mm 3 mps 681 mmHg 76%
    07:00 +23°C° 0.1 mm 4 mps 682 mmHg 73%
    08:00 +25°C° 0.1 mm 4 mps 682 mmHg 70%
    09:00 +27°C° 0.1 mm 5 mps 682 mmHg 67%
    10:00 +27°C° 0.1 mm 4 mps 682 mmHg 66%
    11:00 +28°C° 0.1 mm 4 mps 682 mmHg 65%
    12:00 +28°C° 0.1 mm 4 mps 682 mmHg 64%
    13:00 +28°C° 0.1 mm 4 mps 682 mmHg 66%
    14:00 +28°C° 0.1 mm 3 mps 682 mmHg 68%
    15:00 +27°C° 0.1 mm 3 mps 682 mmHg 70%
    16:00 +27°C° 0.1 mm 3 mps 682 mmHg 74%
    17:00 +26°C° 0.1 mm 2 mps 683 mmHg 77%
    18:00 +25°C° 0.1 mm 2 mps 683 mmHg 81%
    19:00 +24°C° 0.1 mm 2 mps 683 mmHg 84%
    20:00 +24°C° 0.1 mm 1 mps 683 mmHg 88%
    21:00 +23°C° 0.1 mm 1 mps 683 mmHg 91%
    22:00 +22°C° 0 mm 1 mps 683 mmHg 88%
    23:00 +22°C° 0 mm 1 mps 683 mmHg 84%

    25 July, Wednesday

    Time Temperature Precipitation Wind Pressure Humidity
    00:00 +22°C° 0 mm 1 mps 683 mmHg 81%
    01:00 +22°C° 0 mm 1 mps 683 mmHg 76%
    02:00 +20°C° 0 mm 2 mps 683 mmHg 71%
    03:00 +20°C° 0 mm 2 mps 683 mmHg 66%
    04:00 +21°C° 0 mm 2 mps 683 mmHg 64%
    05:00 +23°C° 0 mm 2 mps 683 mmHg 61%
    06:00 +23°C° 0 mm 2 mps 684 mmHg 59%
    07:00 +25°C° 0 mm 2 mps 684 mmHg 55%
    08:00 +27°C° 0 mm 2 mps 684 mmHg 52%
    09:00 +29°C° 0 mm 2 mps 684 mmHg 48%
    10:00 +30°C° 0 mm 2 mps 684 mmHg 48%
    11:00 +31°C° 0 mm 3 mps 684 mmHg 47%
    12:00 +33°C° 0 mm 4 mps 684 mmHg 47%
    13:00 +33°C° 0 mm 4 mps 684 mmHg 49%
    14:00 +33°C° 0 mm 3 mps 683 mmHg 51%
    15:00 +33°C° 0 mm 3 mps 683 mmHg 54%
    16:00 +31°C° 0 mm 3 mps 683 mmHg 57%
    17:00 +30°C° 0 mm 3 mps 683 mmHg 61%
    18:00 +29°C° 0 mm 2 mps 683 mmHg 65%
    19:00 +27°C° 0 mm 2 mps 683 mmHg 68%
    20:00 +26°C° 0 mm 2 mps 683 mmHg 71%
    21:00 +25°C° 0 mm 2 mps 683 mmHg 74%
    22:00 +25°C° 0 mm 2 mps 683 mmHg 71%
    23:00 +24°C° 0 mm 2 mps 683 mmHg 68%

    26 July, Thursday

    Time Temperature Precipitation Wind Pressure Humidity
    00:00 +24°C° 0 mm 2 mps 682 mmHg 65%
    01:00 +24°C° 0 mm 2 mps 682 mmHg 62%
    02:00 +24°C° 0 mm 2 mps 682 mmHg 58%
    03:00 +24°C° 0 mm 2 mps 682 mmHg 55%
    04:00 +25°C° 0 mm 2 mps 682 mmHg 55%
    05:00 +25°C° 0 mm 2 mps 682 mmHg 54%
    06:00 +26°C° 0 mm 2 mps 683 mmHg 54%
    07:00 +28°C° 0 mm 2 mps 683 mmHg 50%
    08:00 +30°C° 0 mm 3 mps 683 mmHg 45%
    09:00 +34°C° 0 mm 3 mps 683 mmHg 40%
    10:00 +34°C° 0 mm 3 mps 683 mmHg 40%
    11:00 +35°C° 0 mm 4 mps 683 mmHg 40%
    12:00 +36°C° 0 mm 4 mps 683 mmHg 40%
    13:00 +35°C° 0 mm 4 mps 683 mmHg 43%
    14:00 +35°C° 0 mm 4 mps 683 mmHg 46%
    15:00 +35°C° 0 mm 4 mps 683 mmHg 48%
    16:00 +34°C° 0 mm 4 mps 683 mmHg 54%
    17:00 +33°C° 0 mm 4 mps 683 mmHg 59%
    18:00 +31°C° 0 mm 3 mps 683 mmHg 65%
    19:00 +29°C° 0 mm 3 mps 683 mmHg 68%
    20:00 +27°C° 0 mm 2 mps 683 mmHg 71%
    21:00 +26°C° 0 mm 2 mps 683 mmHg 74%
    22:00 +26°C° 0 mm 2 mps 683 mmHg 71%
    23:00 +25°C° 0 mm 2 mps 683 mmHg 69%
    Show more